Time,TemperatureF,DewpointF,PressureIn,WindDirection,WindDirectionDegrees,WindSpeedMPH,WindSpeedGustMPH,Humidity,HourlyPrecipIn,Conditions,Clouds,dailyrainin,SoftwareType,DateUTC
2014-01-10 00:00:00,13.9,8.6,30.62,North,360,0.0,0.0,79,0.00,,,0.00,Wunderground v.1.13,2014-01-10 05:00:00,
2014-01-10 00:05:00,13.8,8.5,30.62,North,360,0.0,0.0,79,0.00,,,0.00,Wunderground v.1.13,2014-01-10 05:05:00,
2014-01-10 00:10:00,13.7,8.4,30.61,North,360,0.0,0.0,79,0.00,,,0.00,Wunderground v.1.13,2014-01-10 05:10:00,
2014-01-10 00:20:00,13.6,8.6,30.62,North,32767,0.0,0.0,80,0.00,,,0.00,Wunderground v.1.13,2014-01-10 05:20:00,
2014-01-10 00:25:00,13.6,8.6,30.61,North,360,0.0,0.0,80,0.00,,,0.00,Wunderground v.1.13,2014-01-10 05:25:00,
2014-01-10 00:35:00,13.5,8.5,30.62,North,32767,0.0,0.0,80,0.00,,,0.00,Wunderground v.1.13,2014-01-10 05:35:00,
2014-01-10 00:40:00,13.3,8.0,30.62,North,32767,0.0,0.0,79,0.00,,,0.00,Wunderground v.1.13,2014-01-10 05:40:00,
2014-01-10 00:45:00,13.2,7.9,30.62,North,32767,0.0,0.0,79,0.00,,,0.00,Wunderground v.1.13,2014-01-10 05:45:00,
2014-01-10 00:50:00,13.1,7.8,30.62,North,32767,0.0,0.0,79,0.00,,,0.00,Wunderground v.1.13,2014-01-10 05:50:00,
2014-01-10 01:00:00,12.9,7.9,30.62,North,32767,0.0,0.0,80,0.00,,,0.00,Wunderground v.1.13,2014-01-10 06:00:00,
2014-01-10 01:05:00,12.9,8.2,30.62,N/A,-737280,0.0,0.0,81,0.00,,,0.00,Wunderground v.1.13,2014-01-10 06:05:00,
2014-01-10 01:15:00,13.1,8.4,30.62,North,32767,0.0,0.0,81,0.00,,,0.00,Wunderground v.1.13,2014-01-10 06:15:00,
2014-01-10 01:25:00,13.3,8.6,30.61,North,32767,0.0,0.0,81,0.00,,,0.00,Wunderground v.1.13,2014-01-10 06:25:00,
2014-01-10 01:35:00,13.5,8.5,30.61,North,360,0.0,0.0,80,0.00,,,0.00,Wunderground v.1.13,2014-01-10 06:35:00,
2014-01-10 01:45:00,13.5,8.5,30.61,North,32767,0.0,0.0,80,0.00,,,0.00,Wunderground v.1.13,2014-01-10 06:45:00,
2014-01-10 01:50:00,13.5,8.5,30.61,North,32767,0.0,0.0,80,0.00,,,0.00,Wunderground v.1.13,2014-01-10 06:50:00,
2014-01-10 02:00:00,13.5,8.8,30.61,North,360,0.0,0.0,81,0.00,,,0.00,Wunderground v.1.13,2014-01-10 07:00:00,
2014-01-10 02:05:00,13.6,8.9,30.61,North,360,0.0,0.0,81,0.00,,,0.00,Wunderground v.1.13,2014-01-10 07:05:00,
2014-01-10 02:15:00,13.6,8.9,30.61,North,360,0.0,0.0,81,0.00,,,0.00,Wunderground v.1.13,2014-01-10 07:15:00,
2014-01-10 02:25:00,13.8,9.0,30.61,North,32767,0.0,0.0,81,0.00,,,0.00,Wunderground v.1.13,2014-01-10 07:25:00,
2014-01-10 02:30:00,13.9,9.1,30.61,North,32767,0.0,0.0,81,0.00,,,0.00,Wunderground v.1.13,2014-01-10 07:30:00,
2014-01-10 02:40:00,14.2,9.7,30.60,North,360,0.0,0.0,82,0.00,,,0.00,Wunderground v.1.13,2014-01-10 07:40:00,
2014-01-10 02:45:00,14.4,9.9,30.60,North,360,0.0,0.0,82,0.00,,,0.00,Wunderground v.1.13,2014-01-10 07:45:00,
2014-01-10 02:55:00,14.8,10.0,30.61,North,32767,0.0,0.0,81,0.00,,,0.00,Wunderground v.1.13,2014-01-10 07:55:00,
2014-01-10 03:00:00,15.0,10.2,30.60,North,32767,0.0,0.0,81,0.00,,,0.00,Wunderground v.1.13,2014-01-10 08:00:00,
2014-01-10 03:10:00,15.6,10.5,30.60,North,32767,0.0,0.0,80,0.00,,,0.00,Wunderground v.1.13,2014-01-10 08:10:00,
2014-01-10 03:15:00,15.8,10.7,30.60,North,32767,0.0,0.0,80,0.00,,,0.00,Wunderground v.1.13,2014-01-10 08:15:00,
2014-01-10 03:25:00,16.6,11.2,30.60,North,32767,0.0,0.0,79,0.00,,,0.00,Wunderground v.1.13,2014-01-10 08:25:00,
2014-01-10 03:35:00,17.1,11.4,30.60,North,32767,0.0,0.0,78,0.00,,,0.00,Wunderground v.1.13,2014-01-10 08:35:00,
2014-01-10 03:40:00,17.6,11.6,30.60,North,32767,0.0,0.0,77,0.00,,,0.00,Wunderground v.1.13,2014-01-10 08:40:00,
2014-01-10 03:50:00,18.3,11.7,30.59,North,32767,0.0,0.0,75,0.00,,,0.00,Wunderground v.1.13,2014-01-10 08:50:00,
2014-01-10 03:55:00,18.7,11.8,30.59,North,32767,0.0,0.0,74,0.00,,,0.00,Wunderground v.1.13,2014-01-10 08:55:00,
2014-01-10 04:05:00,19.3,11.7,30.59,North,32767,0.0,0.0,72,0.00,,,0.00,Wunderground v.1.13,2014-01-10 09:05:00,
2014-01-10 04:10:00,19.5,11.6,30.59,North,32767,0.0,0.0,71,0.00,,,0.00,Wunderground v.1.13,2014-01-10 09:10:00,
2014-01-10 04:20:00,19.9,11.7,30.58,North,32767,0.0,0.0,70,0.00,,,0.00,Wunderground v.1.13,2014-01-10 09:20:00,
2014-01-10 04:25:00,20.2,11.7,30.58,North,32767,0.0,0.0,69,0.00,,,0.00,Wunderground v.1.13,2014-01-10 09:25:00,
2014-01-10 04:35:00,20.4,11.5,30.58,North,32767,0.0,0.0,68,0.00,,,0.00,Wunderground v.1.13,2014-01-10 09:35:00,
2014-01-10 04:45:00,20.5,11.6,30.58,North,32767,0.0,0.0,68,0.00,,,0.00,Wunderground v.1.13,2014-01-10 09:45:00,
2014-01-10 04:50:00,20.6,11.7,30.58,North,32767,0.0,0.0,68,0.00,,,0.00,Wunderground v.1.13,2014-01-10 09:50:00,
2014-01-10 05:00:00,20.6,11.7,30.57,North,360,0.0,0.0,68,0.00,,,0.00,Wunderground v.1.13,2014-01-10 10:00:00,
2014-01-10 05:05:00,20.6,12.0,30.57,North,32767,0.0,0.0,69,0.00,,,0.00,Wunderground v.1.13,2014-01-10 10:05:00,
2014-01-10 05:15:00,20.7,12.5,30.57,North,32767,0.0,0.0,70,0.00,,,0.00,Wunderground v.1.13,2014-01-10 10:15:00,
2014-01-10 05:25:00,20.8,13.2,30.56,North,32767,0.0,0.0,72,0.00,,,0.00,Wunderground v.1.13,2014-01-10 10:25:00,
2014-01-10 05:30:00,21.0,13.4,30.55,North,32767,0.0,0.0,72,0.00,,,0.00,Wunderground v.1.13,2014-01-10 10:30:00,
2014-01-10 05:40:00,21.3,13.7,30.55,North,32767,0.0,0.0,72,0.00,,,0.00,Wunderground v.1.13,2014-01-10 10:40:00,
2014-01-10 05:45:00,21.4,13.8,30.55,North,32767,0.0,0.0,72,0.00,,,0.00,Wunderground v.1.13,2014-01-10 10:45:00,
2014-01-10 05:55:00,21.6,14.0,30.55,North,32767,0.0,0.0,72,0.00,,,0.00,Wunderground v.1.13,2014-01-10 10:55:00,
2014-01-10 06:05:00,21.6,15.2,30.54,North,32767,0.0,0.0,76,0.00,,,0.00,Wunderground v.1.13,2014-01-10 11:05:00,
2014-01-10 06:15:00,21.6,16.1,30.54,North,32767,0.0,0.0,79,0.00,,,0.00,Wunderground v.1.13,2014-01-10 11:15:00,
2014-01-10 06:20:00,21.6,16.4,30.54,North,32767,0.0,0.0,80,0.00,,,0.00,Wunderground v.1.13,2014-01-10 11:20:00,
2014-01-10 06:30:00,21.5,16.9,30.54,North,360,0.0,0.0,82,0.00,,,0.00,Wunderground v.1.13,2014-01-10 11:30:00,
2014-01-10 06:35:00,21.5,16.9,30.54,North,32767,0.0,0.0,82,0.00,,,0.00,Wunderground v.1.13,2014-01-10 11:35:00,
2014-01-10 06:45:00,21.5,17.4,30.54,North,32767,0.0,0.0,84,0.00,,,0.00,Wunderground v.1.13,2014-01-10 11:45:00,
2014-01-10 06:55:00,21.4,17.6,30.54,North,32767,0.0,0.0,85,0.00,,,0.00,Wunderground v.1.13,2014-01-10 11:55:00,
2014-01-10 07:00:00,21.5,17.7,30.53,North,32767,0.0,0.0,85,0.00,,,0.00,Wunderground v.1.13,2014-01-10 12:00:00,
2014-01-10 07:10:00,21.5,18.0,30.53,North,32767,0.0,0.0,86,0.00,,,0.00,Wunderground v.1.13,2014-01-10 12:10:00,
2014-01-10 07:15:00,21.4,18.1,30.53,North,32767,0.0,0.0,87,0.00,,,0.00,Wunderground v.1.13,2014-01-10 12:15:00,
2014-01-10 07:25:00,21.4,18.1,30.53,North,32767,0.0,0.0,87,0.00,,,0.00,Wunderground v.1.13,2014-01-10 12:25:00,
2014-01-10 07:30:00,21.4,18.1,30.52,North,32767,0.0,0.0,87,0.00,,,0.00,Wunderground v.1.13,2014-01-10 12:30:00,
2014-01-10 07:40:00,21.4,18.4,30.52,North,32767,0.0,0.0,88,0.00,,,0.00,Wunderground v.1.13,2014-01-10 12:40:00,
2014-01-10 07:50:00,21.5,18.5,30.52,North,32767,0.0,0.0,88,0.00,,,0.00,Wunderground v.1.13,2014-01-10 12:50:00,
2014-01-10 07:55:00,21.6,18.9,30.52,North,32767,0.0,0.0,89,0.00,,,0.00,Wunderground v.1.13,2014-01-10 12:55:00,
2014-01-10 08:05:00,21.9,19.2,30.52,North,32767,0.0,0.0,89,0.00,,,0.00,Wunderground v.1.13,2014-01-10 13:05:00,
2014-01-10 08:10:00,22.1,19.4,30.52,North,32767,0.0,0.0,89,0.00,,,0.00,Wunderground v.1.13,2014-01-10 13:10:00,
2014-01-10 08:20:00,22.5,20.0,30.52,North,32767,0.0,0.0,90,0.00,,,0.00,Wunderground v.1.13,2014-01-10 13:20:00,
2014-01-10 08:25:00,22.6,20.1,30.52,North,360,0.0,0.0,90,0.00,,,0.00,Wunderground v.1.13,2014-01-10 13:25:00,
2014-01-10 08:35:00,23.0,20.5,30.52,North,32767,0.0,0.0,90,0.00,,,0.00,Wunderground v.1.13,2014-01-10 13:35:00,
2014-01-10 08:40:00,23.2,20.7,30.52,North,360,0.0,0.0,90,0.00,,,0.00,Wunderground v.1.13,2014-01-10 13:40:00,
2014-01-10 08:50:00,23.7,21.2,30.51,North,360,0.0,0.0,90,0.00,,,0.00,Wunderground v.1.13,2014-01-10 13:50:00,
2014-01-10 09:00:00,24.1,21.3,30.52,North,32767,0.0,0.0,89,0.00,,,0.00,Wunderground v.1.13,2014-01-10 14:00:00,
2014-01-10 09:05:00,24.2,21.4,30.52,North,32767,0.0,0.0,89,0.00,,,0.00,Wunderground v.1.13,2014-01-10 14:05:00,
2014-01-10 09:15:00,24.4,21.6,30.52,North,360,0.0,0.0,89,0.00,,,0.00,Wunderground v.1.13,2014-01-10 14:15:00,
2014-01-10 09:20:00,24.6,21.8,30.52,North,360,0.0,0.0,89,0.00,,,0.00,Wunderground v.1.13,2014-01-10 14:20:00,
2014-01-10 09:30:00,24.8,22.0,30.52,North,360,0.0,0.0,89,0.00,,,0.00,Wunderground v.1.13,2014-01-10 14:30:00,
2014-01-10 09:35:00,24.9,22.1,30.52,North,360,0.0,0.0,89,0.00,,,0.00,Wunderground v.1.13,2014-01-10 14:35:00,
2014-01-10 09:45:00,25.2,22.7,30.52,North,32767,0.0,0.0,90,0.00,,,0.00,Wunderground v.1.13,2014-01-10 14:45:00,
2014-01-10 09:50:00,25.4,22.9,30.52,North,32767,0.0,0.0,90,0.00,,,0.00,Wunderground v.1.13,2014-01-10 14:50:00,
2014-01-10 10:00:00,25.9,23.4,30.51,North,32767,0.0,0.0,90,0.00,,,0.00,Wunderground v.1.13,2014-01-10 15:00:00,
2014-01-10 10:10:00,26.3,23.8,30.51,North,32767,0.0,0.0,90,0.00,,,0.00,Wunderground v.1.13,2014-01-10 15:10:00,
2014-01-10 10:15:00,26.4,24.1,30.52,North,360,0.0,0.0,91,0.00,,,0.00,Wunderground v.1.13,2014-01-10 15:15:00,
2014-01-10 10:25:00,26.9,24.6,30.52,North,32767,0.0,0.0,91,0.00,,,0.00,Wunderground v.1.13,2014-01-10 15:25:00,
2014-01-10 10:30:00,27.0,24.7,30.52,North,32767,0.0,0.0,91,0.00,,,0.00,Wunderground v.1.13,2014-01-10 15:30:00,
2014-01-10 10:40:00,27.2,25.2,30.51,North,32767,0.0,0.0,92,0.00,,,0.00,Wunderground v.1.13,2014-01-10 15:40:00,
2014-01-10 10:45:00,27.3,25.3,30.50,North,360,0.0,0.0,92,0.00,,,0.00,Wunderground v.1.13,2014-01-10 15:45:00,
2014-01-10 10:55:00,27.5,25.5,30.50,North,32767,0.0,0.0,92,0.00,,,0.00,Wunderground v.1.13,2014-01-10 15:55:00,
2014-01-10 11:05:00,27.8,25.8,30.50,North,32767,0.0,0.0,92,0.00,,,0.00,Wunderground v.1.13,2014-01-10 16:05:00,
2014-01-10 11:10:00,27.8,25.8,30.49,North,32767,0.0,0.0,92,0.00,,,0.00,Wunderground v.1.13,2014-01-10 16:10:00,
2014-01-10 11:20:00,27.9,25.6,30.48,North,32767,0.0,0.0,91,0.00,,,0.00,Wunderground v.1.13,2014-01-10 16:20:00,
2014-01-10 11:25:00,28.0,25.7,30.47,North,32767,0.0,0.0,91,0.00,,,0.00,Wunderground v.1.13,2014-01-10 16:25:00,
2014-01-10 11:35:00,28.2,25.9,30.47,North,32767,0.0,0.0,91,0.00,,,0.00,Wunderground v.1.13,2014-01-10 16:35:00,
2014-01-10 11:45:00,28.7,26.4,30.46,North,32767,0.0,0.0,91,0.00,,,0.00,Wunderground v.1.13,2014-01-10 16:45:00,
2014-01-10 11:50:00,28.9,26.3,30.46,North,360,0.0,0.0,90,0.00,,,0.00,Wunderground v.1.13,2014-01-10 16:50:00,
2014-01-10 12:00:00,29.0,26.4,30.46,North,32767,0.0,0.0,90,0.00,,,0.00,Wunderground v.1.13,2014-01-10 17:00:00,
2014-01-10 12:05:00,29.2,26.6,30.45,North,32767,0.0,0.0,90,0.00,,,0.00,Wunderground v.1.13,2014-01-10 17:05:00,
2014-01-10 12:15:00,29.4,26.8,30.45,North,360,0.0,0.0,90,0.00,,,0.00,Wunderground v.1.13,2014-01-10 17:15:00,
2014-01-10 12:25:00,29.6,27.0,30.44,North,32767,0.0,0.0,90,0.00,,,0.00,Wunderground v.1.13,2014-01-10 17:25:00,
2014-01-10 12:30:00,29.7,27.1,30.45,North,32767,0.0,0.0,90,0.00,,,0.00,Wunderground v.1.13,2014-01-10 17:30:00,
2014-01-10 12:35:00,29.8,27.2,30.44,North,32767,0.0,0.0,90,0.00,,,0.00,Wunderground v.1.13,2014-01-10 17:35:00,
2014-01-10 12:45:00,30.1,27.8,30.43,North,32767,0.0,0.0,91,0.00,,,0.00,Wunderground v.1.13,2014-01-10 17:45:00,
2014-01-10 12:55:00,30.6,28.6,30.43,North,360,0.0,0.0,92,0.00,,,0.00,Wunderground v.1.13,2014-01-10 17:55:00,
2014-01-10 13:00:00,31.1,29.0,30.42,North,32767,0.0,0.0,92,0.00,,,0.00,Wunderground v.1.13,2014-01-10 18:00:00,
2014-01-10 13:05:00,31.3,29.2,30.42,North,32767,0.0,0.0,92,0.00,,,0.00,Wunderground v.1.13,2014-01-10 18:05:00,
2014-01-10 13:15:00,31.5,29.4,30.42,North,32767,0.0,0.0,92,0.00,,,0.00,Wunderground v.1.13,2014-01-10 18:15:00,
2014-01-10 13:25:00,31.6,29.5,30.42,North,32767,0.0,0.0,92,0.00,,,0.00,Wunderground v.1.13,2014-01-10 18:25:00,
2014-01-10 13:35:00,31.7,29.6,30.41,North,32767,0.0,0.0,92,0.00,,,0.00,Wunderground v.1.13,2014-01-10 18:35:00,
2014-01-10 13:40:00,31.7,29.6,30.41,North,360,0.0,0.0,92,0.00,,,0.00,Wunderground v.1.13,2014-01-10 18:40:00,
2014-01-10 13:50:00,31.9,29.8,30.41,North,32767,0.0,0.0,92,0.00,,,0.00,Wunderground v.1.13,2014-01-10 18:50:00,
2014-01-10 13:55:00,32.0,29.9,30.41,North,32767,0.0,0.0,92,0.00,,,0.00,Wunderground v.1.13,2014-01-10 18:55:00,
2014-01-10 14:05:00,32.3,30.2,30.40,North,360,0.0,0.0,92,0.00,,,0.00,Wunderground v.1.13,2014-01-10 19:05:00,
2014-01-10 14:10:00,32.6,30.5,30.40,North,32767,0.0,0.0,92,0.00,,,0.00,Wunderground v.1.13,2014-01-10 19:10:00,
2014-01-10 14:20:00,33.3,31.2,30.40,North,32767,0.0,0.0,92,0.00,,,0.00,Wunderground v.1.13,2014-01-10 19:20:00,
2014-01-10 14:25:00,33.5,31.4,30.41,North,32767,0.0,0.0,92,0.00,,,0.00,Wunderground v.1.13,2014-01-10 19:25:00,
2014-01-10 14:35:00,33.6,31.3,30.41,North,32767,0.0,0.0,91,0.00,,,0.00,Wunderground v.1.13,2014-01-10 19:35:00,
2014-01-10 14:45:00,33.9,31.6,30.40,North,32767,0.0,0.0,91,0.00,,,0.01,Wunderground v.1.13,2014-01-10 19:45:00,
2014-01-10 14:50:00,34.0,31.6,30.40,North,32767,0.0,0.0,91,0.00,,,0.01,Wunderground v.1.13,2014-01-10 19:50:00,
2014-01-10 15:00:00,34.1,31.7,30.40,North,360,0.0,0.0,91,0.00,,,0.01,Wunderground v.1.13,2014-01-10 20:00:00,
2014-01-10 15:05:00,34.1,31.7,30.40,North,360,0.0,0.0,91,0.00,,,0.01,Wunderground v.1.13,2014-01-10 20:05:00,
2014-01-10 15:15:00,34.1,31.7,30.39,North,360,0.0,0.0,91,0.00,,,0.01,Wunderground v.1.13,2014-01-10 20:15:00,
2014-01-10 15:20:00,34.0,31.6,30.39,North,32767,0.0,0.0,91,0.00,,,0.01,Wunderground v.1.13,2014-01-10 20:20:00,
2014-01-10 15:30:00,34.0,31.6,30.39,North,32767,0.0,0.0,91,0.00,,,0.01,Wunderground v.1.13,2014-01-10 20:30:00,
2014-01-10 15:40:00,34.2,31.8,30.39,North,360,0.0,0.0,91,0.00,,,0.01,Wunderground v.1.13,2014-01-10 20:40:00,
2014-01-10 15:45:00,34.2,31.8,30.39,North,360,0.0,0.0,91,0.00,,,0.01,Wunderground v.1.13,2014-01-10 20:45:00,
2014-01-10 15:55:00,34.3,31.9,30.39,North,32767,0.0,0.0,91,0.00,,,0.01,Wunderground v.1.13,2014-01-10 20:55:00,
2014-01-10 16:00:00,34.2,31.8,30.39,North,32767,0.0,0.0,91,0.00,,,0.01,Wunderground v.1.13,2014-01-10 21:00:00,
2014-01-10 16:10:00,34.2,31.8,30.38,North,32767,0.0,0.0,91,0.00,,,0.01,Wunderground v.1.13,2014-01-10 21:10:00,
2014-01-10 16:15:00,34.1,31.7,30.39,North,32767,0.0,0.0,91,0.00,,,0.01,Wunderground v.1.13,2014-01-10 21:15:00,
2014-01-10 16:25:00,34.0,31.6,30.38,North,360,0.0,0.0,91,0.00,,,0.01,Wunderground v.1.13,2014-01-10 21:25:00,
2014-01-10 16:30:00,33.9,31.6,30.38,North,360,0.0,0.0,91,0.00,,,0.01,Wunderground v.1.13,2014-01-10 21:30:00,
2014-01-10 16:40:00,33.7,31.4,30.38,North,360,0.0,0.0,91,0.00,,,0.01,Wunderground v.1.13,2014-01-10 21:40:00,
2014-01-10 16:50:00,33.7,31.6,30.38,North,32767,0.0,0.0,92,0.00,,,0.01,Wunderground v.1.13,2014-01-10 21:50:00,
2014-01-10 16:55:00,33.7,31.6,30.38,North,32767,0.0,0.0,92,0.00,,,0.01,Wunderground v.1.13,2014-01-10 21:55:00,
2014-01-10 17:05:00,33.6,31.5,30.38,North,32767,0.0,0.0,92,0.00,,,0.01,Wunderground v.1.13,2014-01-10 22:05:00,
2014-01-10 17:10:00,33.5,31.4,30.38,North,360,0.0,0.0,92,0.00,,,0.01,Wunderground v.1.13,2014-01-10 22:10:00,
2014-01-10 17:20:00,33.5,31.4,30.38,North,360,0.0,0.0,92,0.00,,,0.01,Wunderground v.1.13,2014-01-10 22:20:00,
2014-01-10 17:30:00,33.5,31.4,30.38,North,360,0.0,0.0,92,0.00,,,0.01,Wunderground v.1.13,2014-01-10 22:30:00,
2014-01-10 17:35:00,33.6,31.5,30.38,North,32767,0.0,0.0,92,0.00,,,0.01,Wunderground v.1.13,2014-01-10 22:35:00,
2014-01-10 17:45:00,33.7,31.9,30.37,North,360,0.0,0.0,93,0.00,,,0.01,Wunderground v.1.13,2014-01-10 22:45:00,
2014-01-10 17:50:00,33.7,31.9,30.38,North,32767,0.0,0.0,93,0.00,,,0.01,Wunderground v.1.13,2014-01-10 22:50:00,
2014-01-10 18:00:00,33.7,31.9,30.38,North,360,0.0,0.0,93,0.00,,,0.01,Wunderground v.1.13,2014-01-10 23:00:00,
2014-01-10 18:05:00,33.8,32.0,30.38,North,360,0.0,0.0,93,0.00,,,0.01,Wunderground v.1.13,2014-01-10 23:05:00,
2014-01-10 18:15:00,33.8,33.8,30.39,North,32767,0.0,0.0,100,0.00,,,0.01,Wunderground v.1.13,2014-01-10 23:15:00,
2014-01-10 18:20:00,33.8,33.8,30.39,North,32767,0.0,0.0,100,0.00,,,0.01,Wunderground v.1.13,2014-01-10 23:20:00,
2014-01-10 18:30:00,33.8,32.0,30.38,North,360,0.0,0.0,93,0.00,,,0.01,Wunderground v.1.13,2014-01-10 23:30:00,
2014-01-10 18:35:00,33.9,32.1,30.38,North,360,0.0,0.0,93,0.00,,,0.01,Wunderground v.1.13,2014-01-10 23:35:00,
2014-01-10 18:45:00,33.9,32.1,30.38,North,32767,0.0,0.0,93,0.00,,,0.01,Wunderground v.1.13,2014-01-10 23:45:00,
2014-01-10 18:55:00,34.0,32.2,30.38,North,360,0.0,0.0,93,0.00,,,0.01,Wunderground v.1.13,2014-01-10 23:55:00,
2014-01-10 19:00:00,34.1,32.6,30.38,North,32767,0.0,0.0,94,0.00,,,0.01,Wunderground v.1.13,2014-01-11 00:00:00,
2014-01-10 19:10:00,34.2,32.7,30.38,North,360,0.0,0.0,94,0.00,,,0.01,Wunderground v.1.13,2014-01-11 00:10:00,
2014-01-10 19:15:00,34.1,32.6,30.38,North,360,0.0,0.0,94,0.00,,,0.01,Wunderground v.1.13,2014-01-11 00:15:00,
2014-01-10 19:25:00,34.1,32.6,30.38,North,360,0.0,0.0,94,0.00,,,0.01,Wunderground v.1.13,2014-01-11 00:25:00,
2014-01-10 19:35:00,34.0,32.5,30.38,North,360,0.0,0.0,94,0.00,,,0.01,Wunderground v.1.13,2014-01-11 00:35:00,
2014-01-10 19:40:00,34.0,32.5,30.38,North,360,0.0,0.0,94,0.00,,,0.01,Wunderground v.1.13,2014-01-11 00:40:00,
2014-01-10 19:50:00,34.0,32.5,30.37,North,360,0.0,0.0,94,0.00,,,0.01,Wunderground v.1.13,2014-01-11 00:50:00,
2014-01-10 19:55:00,34.0,32.5,30.37,North,360,0.0,0.0,94,0.00,,,0.01,Wunderground v.1.13,2014-01-11 00:55:00,
2014-01-10 20:05:00,34.0,32.5,30.37,North,32767,0.0,0.0,94,0.00,,,0.01,Wunderground v.1.13,2014-01-11 01:05:00,
2014-01-10 20:15:00,34.0,32.5,30.36,North,32767,0.0,0.0,94,0.00,,,0.01,Wunderground v.1.13,2014-01-11 01:15:00,
2014-01-10 20:20:00,34.0,32.5,30.37,North,360,0.0,0.0,94,0.00,,,0.01,Wunderground v.1.13,2014-01-11 01:20:00,
2014-01-10 20:30:00,34.1,32.8,30.36,North,360,0.0,0.0,95,0.00,,,0.01,Wunderground v.1.13,2014-01-11 01:30:00,
2014-01-10 20:40:00,34.2,32.9,30.36,North,32767,0.0,0.0,95,0.00,,,0.01,Wunderground v.1.13,2014-01-11 01:40:00,
2014-01-10 20:45:00,34.3,33.0,30.36,North,32767,0.0,0.0,95,0.00,,,0.01,Wunderground v.1.13,2014-01-11 01:45:00,
2014-01-10 20:55:00,34.5,33.2,30.36,North,32767,0.0,0.0,95,0.00,,,0.02,Wunderground v.1.13,2014-01-11 01:55:00,
2014-01-10 21:00:00,34.6,33.3,30.35,North,32767,0.0,0.0,95,0.00,,,0.02,Wunderground v.1.13,2014-01-11 02:00:00,
2014-01-10 21:10:00,34.8,33.5,30.35,North,32767,0.0,0.0,95,0.00,,,0.02,Wunderground v.1.13,2014-01-11 02:10:00,
2014-01-10 21:15:00,34.8,33.5,30.35,North,32767,0.0,0.0,95,0.00,,,0.02,Wunderground v.1.13,2014-01-11 02:15:00,
2014-01-10 21:25:00,34.8,33.5,30.35,North,32767,0.0,0.0,95,0.00,,,0.02,Wunderground v.1.13,2014-01-11 02:25:00,
2014-01-10 21:30:00,34.9,33.6,30.34,North,32767,0.0,0.0,95,0.00,,,0.02,Wunderground v.1.13,2014-01-11 02:30:00,
2014-01-10 21:40:00,34.9,33.6,30.34,North,360,0.0,0.0,95,0.00,,,0.02,Wunderground v.1.13,2014-01-11 02:40:00,
2014-01-10 21:50:00,34.8,33.5,30.34,North,32767,0.0,0.0,95,0.00,,,0.02,Wunderground v.1.13,2014-01-11 02:50:00,
2014-01-10 21:55:00,34.7,33.4,30.34,North,32767,0.0,0.0,95,0.00,,,0.02,Wunderground v.1.13,2014-01-11 02:55:00,
2014-01-10 22:05:00,34.6,33.3,30.34,North,32767,0.0,0.0,95,0.00,,,0.02,Wunderground v.1.13,2014-01-11 03:05:00,
2014-01-10 22:15:00,34.6,33.3,30.33,North,32767,0.0,0.0,95,0.00,,,0.02,Wunderground v.1.13,2014-01-11 03:15:00,
2014-01-10 22:20:00,34.6,33.3,30.33,North,32767,0.0,0.0,95,0.00,,,0.02,Wunderground v.1.13,2014-01-11 03:20:00,
2014-01-10 22:30:00,34.6,33.3,30.33,North,32767,0.0,0.0,95,0.00,,,0.02,Wunderground v.1.13,2014-01-11 03:30:00,
2014-01-10 22:40:00,34.7,33.4,30.32,North,360,0.0,0.0,95,0.00,,,0.02,Wunderground v.1.13,2014-01-11 03:40:00,
2014-01-10 22:45:00,34.7,33.7,30.32,North,32767,0.0,0.0,96,0.00,,,0.02,Wunderground v.1.13,2014-01-11 03:45:00,
2014-01-10 22:55:00,34.7,33.7,30.32,North,32767,0.0,0.0,96,0.00,,,0.02,Wunderground v.1.13,2014-01-11 03:55:00,
2014-01-10 23:00:00,34.8,33.8,30.31,North,32767,0.0,0.0,96,0.00,,,0.02,Wunderground v.1.13,2014-01-11 04:00:00,
2014-01-10 23:10:00,34.8,33.8,30.31,North,360,0.0,0.0,96,0.00,,,0.02,Wunderground v.1.13,2014-01-11 04:10:00,
2014-01-10 23:15:00,34.8,33.8,30.31,North,360,0.0,0.0,96,0.00,,,0.02,Wunderground v.1.13,2014-01-11 04:15:00,
2014-01-10 23:25:00,34.8,33.8,30.30,North,32767,0.0,0.0,96,0.00,,,0.02,Wunderground v.1.13,2014-01-11 04:25:00,
2014-01-10 23:35:00,34.8,33.8,30.30,North,360,0.0,0.0,96,0.00,,,0.02,Wunderground v.1.13,2014-01-11 04:35:00,
2014-01-10 23:40:00,34.8,33.8,30.30,North,32767,0.0,0.0,96,0.00,,,0.02,Wunderground v.1.13,2014-01-11 04:40:00,
2014-01-10 23:50:00,34.7,33.7,30.30,North,32767,0.0,0.0,96,0.00,,,0.02,Wunderground v.1.13,2014-01-11 04:50:00,
2014-01-10 23:55:00,34.7,33.4,30.29,North,32767,0.0,0.0,95,0.00,,,0.02,Wunderground v.1.13,2014-01-11 04:55:00,